[[{"header":{"parameterUnit":"m.s-1","parameterCategory":1,"la1":30.2991,"la2":30.254,"lo1":-89.0895,"lo2":-89.0444,"dy":0.0017,"dx":0.0017,"nx":28,"ny":28,"refTime":"2024-03-27T09:00:00:Z","depth":0,"parameterNumber":2,"parameterNumberName":"U-component_of_WINDS"},"data":[0,0,0,0,0,0,0,0,0,0,0,0,0,0,0,0,0,0,0,0,0,0,0,0,0,0,0,0,0,0,0,0,0,0,0,0,0,0,0,0,0,0,0,0,0,0,0,0,0,0,0,0,0,0,0,0,0,0,0.7991,0.7992,0,0.8013,0.8014,0.8014,0.8035,0.8035,0.8036,0.8036,0.8057,0.8057,0.8057,0,0,0,0,0,0,0,0,0,0,0,0,0,0.7966,0.7966,0.7991,0.7992,0.7992,0.8013,0.8014,0.8014,0.8035,0.8036,0.8036,0.8036,0.8057,0.8057,0.8057,0,0,0,0,0,0,0,0,0,0,0,0,0,0.7981,0.7966,0.7991,0.8005,0.8007,0.8013,0.8014,0.8014,0.8035,0.8036,0.8036,0.8036,0.8057,0.8057,0.8058,0.8052,0,0,0.8059,0.8059,0,0,0,0,0,0,0,0,0.798,0.7982,0.8003,0.8004,0.8006,0.8022,0.8012,0.8027,0.8035,0.8024,0.8036,0.8037,0.8045,0.8046,0.8049,0.8053,0.8054,0.8059,0.8059,0.8059,0.806,0,0,0,0,0,0,0,0.7979,0.7981,0.8,0.8003,0.8005,0.801,0.8012,0.8015,0.8032,0.8025,0.8027,0.8029,0.8046,0.8049,0.805,0.8054,0.8059,0.8059,0.806,0.806,0.8053,0.8052,0,0,0,0,0,0,0.7976,0.798,0.7999,0.8001,0.7994,0.801,0.8013,0.8016,0.8032,0.8035,0.8029,0.803,0.8048,0.805,0.8051,0.8044,0.8059,0.806,0.806,0.8053,0.8053,0.8052,0,0,0,0,0,0,0.7976,0.7978,0.7999,0.7991,0.7994,0.801,0.8014,0.8017,0.802,0.8035,0.8038,0.8029,0.8048,0.805,0.8051,0.8045,0.806,0.806,0.8054,0.8053,0.8053,0.8032,0,0,0,0,0,0,0.7975,0.7977,0.7976,0.7991,0.7994,0.7999,0.8013,0.8017,0.8021,0.8023,0.8036,0.8038,0.8049,0.8051,0.8052,0.8046,0.8061,0.8054,0.8054,0.8053,0.8033,0.803,0.8028,0,0,0,0,0,0.7974,0.7969,0.7976,0.7978,0.7993,0.7999,0.8001,0.8013,0.802,0.8018,0.8028,0.8038,0.8046,0.8051,0.8052,0.8047,0.8055,0.8054,0.8053,0.8034,0.8031,0.8028,0,0,0,0,0,0,0.7953,0.7971,0.7979,0.7979,0.7987,0.8002,0.8,0.801,0.8016,0.8017,0.8032,0.8035,0.8034,0.8041,0.8045,0.8041,0.8052,0.8051,0.8037,0.8034,0.8032,0.803,0.8061,0,0,0,0,0,0.7948,0.7952,0.7968,0.7966,0.797,0.7984,0.7988,0.7997,0.8006,0.8009,0.8019,0.8026,0.803,0.8033,0.8038,0.8034,0.8037,0.8031,0.8029,0.8027,0.8026,0.8023,0.802,0.8049,0.8049,0.8049,0,0,0.7938,0.7949,0.7951,0.7962,0.797,0.7972,0.7987,0.799,0.7992,0.8009,0.8011,0.8018,0.8027,0.8026,0.8026,0.8031,0.8019,0.8026,0.8024,0.8024,0.8022,0.8019,0.8017,0.8048,0.8048,0.8049,0,0,0.7922,0.7931,0.793,0.7937,0.7949,0.7958,0.7958,0.7972,0.7977,0.7979,0.7992,0.7994,0.8002,0.8008,0.8012,0.7997,0.8006,0.7998,0.7985,0.7983,0.798,0.7978,0.7972,0.797,0.7997,0.7997,0.7997,0,0.7908,0.7914,0.7929,0.793,0.7934,0.7951,0.7949,0.7956,0.7967,0.797,0.7976,0.7985,0.7993,0.7992,0.7989,0.7992,0.7991,0.7996,0.798,0.7978,0.7976,0.797,0.7968,0.7996,0.7996,0.7996,0.7996,0,0.7896,0.7899,0.7897,0.7908,0.7913,0.7913,0.7927,0.7929,0.7938,0.7946,0.7947,0.7957,0.7964,0.7965,0.7974,0.7965,0.7968,0.7977,0.7988,0.7972,0.7967,0.7965,0.7995,0.7995,0.7995,0.7996,0,0,0.7866,0.7886,0.7884,0.7889,0.7903,0.7905,0.7906,0.7913,0.7914,0.7922,0.7921,0.7927,0.7935,0.794,0.7949,0.7947,0.7933,0.7956,0.7956,0.795,0.7923,0.7915,0.7913,0.794,0.7939,0.7939,0.7922,0,0.7851,0.7853,0.7866,0.7864,0.7867,0.7883,0.7883,0.7891,0.7899,0.7902,0.7911,0.7914,0.7925,0.7928,0.7926,0.7935,0.7928,0.7937,0.7939,0.7938,0.7934,0.791,0.7902,0.7885,0.792,0.792,0.7919,0,0.7833,0.784,0.7838,0.7851,0.7853,0.7853,0.7859,0.7863,0.7871,0.7877,0.7882,0.7893,0.7893,0.7904,0.7905,0.791,0.7912,0.7916,0.7916,0.7915,0.7927,0.7907,0.788,0.7877,0.7917,0.7917,0.7917,0,0.781,0.7819,0.7819,0.7822,0.7838,0.7837,0.7843,0.7853,0.7856,0.7862,0.7863,0.7869,0.7872,0.7876,0.7888,0.7895,0.7886,0.7898,0.789,0.7889,0.7886,0.7886,0.7857,0.789,0.789,0.789,0.789,0,0.7791,0.7789,0.7808,0.7808,0.7806,0.7821,0.7818,0.7826,0.7834,0.7835,0.7849,0.7849,0.7865,0.7867,0.7877,0.7874,0.7876,0.788,0.7882,0.7878,0.7877,0.7878,0.7879,0.7889,0.7889,0.789,0.789,0,0.7764,0.7777,0.7778,0.7792,0.7795,0.7793,0.7805,0.7805,0.7814,0.7815,0.7816,0.783,0.7833,0.7845,0.7851,0.7857,0.7852,0.7857,0.7848,0.785,0.784,0.784,0.781,0.7806,0.7842,0.7842,0.7842,0,0.775,0.7749,0.7763,0.7765,0.777,0.7773,0.7776,0.7791,0.7793,0.7803,0.7801,0.7806,0.781,0.7814,0.7824,0.7828,0.7833,0.7822,0.7833,0.7829,0.7831,0.783,0.7829,0.7819,0.7818,0.7818,0.7818,0,0.7724,0.773,0.7734,0.774,0.7744,0.7749,0.7756,0.7756,0.7772,0.7774,0.7777,0.7781,0.7787,0.779,0.7796,0.7802,0.7812,0.7814,0.7812,0.7807,0.7801,0.7803,0.784,0.7815,0.7815,0.7815,0.7815,0.7815,0.7702,0.7701,0.7711,0.7714,0.7721,0.7726,0.7726,0.7736,0.7739,0.7745,0.7753,0.7755,0.7763,0.7773,0.7778,0.7779,0.7784,0.7782,0.7781,0.778,0.7777,0.7803,0.778,0.778,0.778,0.778,0.778,0,0.7675,0.7682,0.7685,0.7693,0.7696,0.7707,0.7714,0.7715,0.7717,0.7724,0.7727,0.7731,0.7734,0.7745,0.7749,0.7748,0.7752,0.7748,0.7747,0.7748,0.7772,0.7773,0.7744,0.7744,0.7744,0.7744,0.7744,0.7744,0.7661,0.7659,0.7667,0.7668,0.7675,0.7677,0.7681,0.7685,0.7691,0.7694,0.7697,0.7704,0.7712,0.7717,0.772,0.7723,0.7723,0.7717,0.7721,0.7743,0.7747,0.775,0.775,0.7717,0.7717,0.7697,0.7697,0.7697]},{"header":{"parameterUnit":"m.s-1","parameterCategory":1,"la1":30.2991,"la2":30.254,"lo1":-89.0895,"lo2":-89.0444,"dy":0.0017,"dx":0.0017,"nx":28,"ny":28,"refTime":"2024-03-27T09:00:00:Z","depth":0,"parameterNumber":3,"parameterNumberName":"V-component_of_WINDS"},"data":[0,0,0,0,0,0,0,0,0,0,0,0,0,0,0,0,0,0,0,0,0,0,0,0,0,0,0,0,0,0,0,0,0,0,0,0,0,0,0,0,0,0,0,0,0,0,0,0,0,0,0,0,0,0,0,0,0,0,-0.2435,-0.2437,0,-0.2613,-0.2615,-0.2617,-0.269,-0.2689,-0.2689,-0.2689,-0.2877,-0.2882,-0.2888,0,0,0,0,0,0,0,0,0,0,0,0,0,-0.2163,-0.2167,-0.2435,-0.2437,-0.2439,-0.2613,-0.2615,-0.2618,-0.269,-0.2689,-0.2689,-0.2688,-0.2875,-0.2882,-0.2888,0,0,0,0,0,0,0,0,0,0,0,0,0,-0.2305,-0.2169,-0.2434,-0.2496,-0.2503,-0.2612,-0.2615,-0.2618,-0.269,-0.2689,-0.2689,-0.2688,-0.2873,-0.2881,-0.2889,-0.2951,0,0,-0.2914,-0.2917,0,0,0,0,0,0,0,0,-0.2297,-0.2315,-0.2485,-0.2492,-0.25,-0.2628,-0.2588,-0.273,-0.269,-0.2619,-0.2689,-0.2688,-0.2795,-0.281,-0.2845,-0.296,-0.2968,-0.2914,-0.2919,-0.2923,-0.2925,0,0,0,0,0,0,0,-0.2287,-0.2308,-0.2506,-0.2487,-0.2497,-0.2517,-0.2536,-0.2616,-0.2709,-0.2625,-0.2631,-0.2651,-0.2799,-0.2837,-0.285,-0.2971,-0.2914,-0.2921,-0.2926,-0.293,-0.3148,-0.3149,0,0,0,0,0,0,-0.2266,-0.2299,-0.25,-0.2511,-0.2395,-0.2522,-0.2544,-0.2588,-0.2708,-0.2726,-0.2651,-0.2654,-0.2823,-0.284,-0.2856,-0.2939,-0.2923,-0.293,-0.2935,-0.3147,-0.3149,-0.315,0,0,0,0,0,0,-0.226,-0.2283,-0.2493,-0.2407,-0.2435,-0.2527,-0.2576,-0.2592,-0.2629,-0.2727,-0.2745,-0.2672,-0.2823,-0.2845,-0.2927,-0.2946,-0.2934,-0.2941,-0.3146,-0.3148,-0.3149,-0.3102,0,0,0,0,0,0,-0.2252,-0.2281,-0.2304,-0.2406,-0.2439,-0.2559,-0.2578,-0.2596,-0.2642,-0.2647,-0.2751,-0.2768,-0.2824,-0.2915,-0.2935,-0.2957,-0.2948,-0.3145,-0.3147,-0.3149,-0.3103,-0.3102,-0.3101,0,0,0,0,0,-0.2242,-0.2285,-0.2305,-0.2329,-0.247,-0.2559,-0.2578,-0.264,-0.2643,-0.2669,-0.2732,-0.2765,-0.294,-0.2922,-0.2946,-0.2971,-0.3144,-0.3146,-0.3148,-0.3103,-0.3102,-0.3101,0,0,0,0,0,0,-0.2185,-0.2299,-0.2323,-0.24,-0.2469,-0.2571,-0.2605,-0.2637,-0.2709,-0.2711,-0.2786,-0.2809,-0.2885,-0.2936,-0.2914,-0.3038,-0.3045,-0.3052,-0.3002,-0.3002,-0.3001,-0.2988,-0.2954,0,0,0,0,0,-0.218,-0.2242,-0.234,-0.2398,-0.2432,-0.2512,-0.2553,-0.2595,-0.2671,-0.2701,-0.277,-0.2844,-0.2916,-0.2962,-0.3033,-0.311,-0.3135,-0.3138,-0.3138,-0.3137,-0.3142,-0.3188,-0.3191,-0.3157,-0.3157,-0.3157,0,0,-0.2174,-0.2244,-0.2278,-0.2389,-0.2447,-0.2511,-0.2536,-0.2603,-0.2651,-0.2712,-0.2793,-0.2846,-0.2934,-0.3013,-0.3052,-0.3058,-0.3157,-0.3139,-0.3138,-0.3145,-0.3191,-0.3194,-0.3197,-0.3158,-0.3158,-0.3158,0,0,-0.2194,-0.2252,-0.2308,-0.2365,-0.2453,-0.2506,-0.2519,-0.2617,-0.2654,-0.2736,-0.2783,-0.2843,-0.2964,-0.3025,-0.3072,-0.3113,-0.3147,-0.3135,-0.3132,-0.3176,-0.3178,-0.3181,-0.3198,-0.3202,-0.314,-0.314,-0.314,0,-0.2175,-0.2271,-0.2333,-0.2396,-0.2444,-0.2499,-0.2557,-0.2611,-0.2718,-0.275,-0.2755,-0.2909,-0.2972,-0.3067,-0.3077,-0.3112,-0.3131,-0.3124,-0.3172,-0.3176,-0.318,-0.3196,-0.3202,-0.3138,-0.3138,-0.3138,-0.3138,0,-0.2244,-0.2309,-0.2344,-0.2444,-0.2495,-0.2556,-0.2629,-0.2674,-0.271,-0.2764,-0.2847,-0.2924,-0.3012,-0.3038,-0.3075,-0.3139,-0.314,-0.3157,-0.3166,-0.318,-0.3197,-0.3204,-0.3135,-0.3135,-0.3136,-0.3137,0,0,-0.2234,-0.2366,-0.2378,-0.2424,-0.2524,-0.2578,-0.2641,-0.2725,-0.2763,-0.2834,-0.2891,-0.2992,-0.3009,-0.3062,-0.3106,-0.3144,-0.3174,-0.3158,-0.3161,-0.3159,-0.325,-0.3237,-0.3243,-0.3196,-0.3197,-0.3199,-0.3243,0,-0.2269,-0.2382,-0.244,-0.253,-0.2592,-0.2645,-0.2701,-0.2769,-0.282,-0.2882,-0.294,-0.301,-0.3026,-0.3059,-0.3098,-0.3162,-0.3194,-0.3159,-0.3252,-0.3254,-0.3229,-0.3252,-0.3239,-0.3277,-0.325,-0.3251,-0.3252,0,-0.2325,-0.2394,-0.2489,-0.2582,-0.261,-0.2658,-0.274,-0.2798,-0.2877,-0.2912,-0.297,-0.3014,-0.3084,-0.3086,-0.3186,-0.3161,-0.3202,-0.3239,-0.3242,-0.3254,-0.3255,-0.3267,-0.3291,-0.3297,-0.3263,-0.3262,-0.3261,0,-0.231,-0.2427,-0.2499,-0.2536,-0.2646,-0.2679,-0.2727,-0.2805,-0.2852,-0.2924,-0.2956,-0.3036,-0.308,-0.3142,-0.3207,-0.3202,-0.33,-0.3307,-0.3333,-0.3331,-0.3353,-0.3351,-0.3386,-0.3376,-0.3376,-0.3376,-0.3376,0,-0.2343,-0.24,-0.2493,-0.2538,-0.2603,-0.267,-0.2733,-0.2785,-0.2854,-0.2911,-0.2962,-0.3015,-0.3097,-0.316,-0.3211,-0.3287,-0.3306,-0.3338,-0.3351,-0.3334,-0.333,-0.3364,-0.3363,-0.3378,-0.3377,-0.3377,-0.3377,0,-0.2338,-0.2403,-0.2485,-0.2581,-0.2607,-0.2651,-0.2735,-0.2781,-0.2834,-0.2906,-0.2926,-0.3011,-0.3088,-0.3158,-0.3262,-0.3296,-0.3373,-0.3389,-0.3346,-0.3354,-0.3376,-0.3373,-0.3434,-0.3446,-0.3427,-0.3427,-0.3427,0,-0.2356,-0.24,-0.2501,-0.2541,-0.2587,-0.2653,-0.27,-0.2767,-0.2815,-0.2908,-0.2944,-0.3025,-0.3093,-0.3215,-0.3287,-0.3366,-0.3386,-0.3401,-0.3398,-0.338,-0.3388,-0.3385,-0.339,-0.3401,-0.3401,-0.3401,-0.3401,0,-0.2381,-0.241,-0.2476,-0.2553,-0.2608,-0.2672,-0.2738,-0.2769,-0.2849,-0.2901,-0.2979,-0.3032,-0.3136,-0.3217,-0.3304,-0.3356,-0.3393,-0.3401,-0.3411,-0.3395,-0.3369,-0.3385,-0.3346,-0.34,-0.34,-0.34,-0.34,-0.34,-0.2389,-0.2431,-0.2508,-0.258,-0.2636,-0.2696,-0.2744,-0.2803,-0.2869,-0.2958,-0.2994,-0.3074,-0.3153,-0.3274,-0.3325,-0.3391,-0.3398,-0.3413,-0.3417,-0.342,-0.3417,-0.3357,-0.3407,-0.3407,-0.3407,-0.3407,-0.3407,0,-0.2418,-0.247,-0.2534,-0.2624,-0.2681,-0.2707,-0.2782,-0.2828,-0.2897,-0.2967,-0.3032,-0.3123,-0.3201,-0.3278,-0.3361,-0.3399,-0.3418,-0.3418,-0.3417,-0.3429,-0.3405,-0.3389,-0.3401,-0.3401,-0.3401,-0.3401,-0.3401,-0.3401,-0.244,-0.2512,-0.2551,-0.2653,-0.2705,-0.2782,-0.2823,-0.2879,-0.2935,-0.3033,-0.3097,-0.3146,-0.322,-0.3308,-0.3381,-0.3402,-0.3431,-0.3427,-0.3453,-0.343,-0.343,-0.343,-0.3415,-0.3433,-0.3433,-0.3472,-0.3472,-0.3472]}]]